Sich 1 - Orbit

View from above orbital plane
View from above orbital plane
View from above satellite
View from above satellite

Ground track
Ground track

The orbit data is extracted from the following two-line orbital elements,

1 23657U 95046A   13139.79486150  .00000995  00000-0  11851-3 0   234
2 23657 082.5293 217.6844 0021912 327.0503 032.9345 14.83229870956461
Epoch (UTC): 19 May 2013 19:04:36
Eccentricity: 0.0021912
inclination: 82.5293°
perigee height: 604 km
apogee height: 634 km
right ascension of ascending node: 217.6844°
argument of perigee: 327.0503°
revolutions per day: 14.83229870
mean anomaly at epoch: 32.9345°
orbit number at epoch: 95646

The dashed part of the orbit path shows where the satellite is in the earth's shadow,  

Developed and maintained by Chris Peat, Heavens-Above GmbH. Please read the updated FAQ before sending e-mail. Imprint. DLR